Preview of NWS' New Version of Forecast
This preview is not operational and should not be used for support decisions.

Regional Weather Roundup (RWR)

Issued by National Weather Service (NWS)

                            
000
ASUS44 KJAN 192110
RWRMS 

MISSISSIPPI HOURLY WEATHER ROUNDUP
NATIONAL WEATHER SERVICE JACKSON MS
400 PM CDT FRI APR 19 2019

NOTE: "FAIR: INDICATES FEW OR NO CLOUDS BELOW 12,000 FEET WITH NO
SIGNIFICANT WEATHER AND/OR OBSTRUCTIONS TO VISIBILITY.

MSZ001>002-007>008-010>013-018>021-025>028-034>036-192200-
NORTHWEST MISSISSIPPI
  
CITY           SKY/WX    TMP DP  RH WIND       PRES   REMARKS
BATESVILLE     CLOUDY    50  45  81 NW9G21    29.78S                  
CLARKSDALE     PTSUNNY   54  46  76 NW20      29.81S                  
CLEVELAND      CLOUDY    54  43  66 NW18G26   29.82S                  
GREENWOOD      CLOUDY    53  40  61 W10G18    29.80F                  
GREENVILLE     LGT RAIN  52  42  69 NW15G31   29.83R                  
OLIVE BRANCH   LGT RAIN  45  45 100 NW15G24   29.77S                  
OXFORD         CLOUDY    46  43  87 NW12      29.77S FOG              
TUNICA         DRIZZLE   48  43  81 NW13G22   29.80S                  
WINONA         CLOUDY    50  42  74 NW7G20    29.78S                  
$$

MSZ003>006-009-014>017-022>024-029>033-037>039-192200-
NORTHEAST MISSISSIPPI
  
CITY           SKY/WX    TMP DP  RH WIND       PRES   REMARKS
ABERDEEN       DRIZZLE   48  48 100 NW18      29.72S                  
COLUMBUS AFB   PTSUNNY   50  45  81 W15       29.71S                  
CORINTH        LGT RAIN  46  45  93 NW14      29.68R                  
GOLDN TRIANGLE LGT RAIN  51  43  74 W14G25    29.73R                  
STARKVILLE     CLOUDY    50  43  76 NW7       29.75S                  
TUPELO         LGT RAIN  48  44  86 NW8G21    29.71S                  
$$

MSZ040-058-192200-
CENTRAL MISSISSIPPI
  
CITY           SKY/WX    TMP DP  RH WIND       PRES   REMARKS
JACKSON INTL   PTSUNNY   58  41  53 NW20G28   29.80F                  
JACKSON HAWKNS CLOUDY    58  44  60 NW13G21   29.80F                  
MADISON        FAIR      54  43  66 NW12G23   29.80S                  
MERIDIAN KEY   PTSUNNY   58  46  64 NW10G20   29.76S                  
MERIDIAN NAS   PTSUNNY   58  43  57 NW23G33   29.75S                  
RAYMOND        MOCLDY    59  45  58 NW13G22   29.81R                  
VICKSBURG VKS  MOCLDY    54  46  76 NW10G18   29.86S                  
$$

MSZ059>079-192200-
SOUTH MISSISSIPPI
  
CITY           SKY/WX    TMP DP  RH WIND       PRES   REMARKS
HATTIESBURG    LGT RAIN  54  48  80 NW12      29.81R                  
LAUREL         CLOUDY    59  46  61 W14G23    29.77F                  
MCCOMB         FAIR      62  45  53 NW14G22   29.80F                  
NATCHEZ        FAIR      60  51  72 W8        29.85F                  
PINE BELT      CLOUDY    53  48  83 W12G18    29.81R                  
$$

MSZ080>082-192200-
COASTAL MISSISSIPPI
  
CITY           SKY/WX    TMP DP  RH WIND       PRES   REMARKS
BAY ST LOUIS   PTSUNNY   54  48  82 N15G25    29.81R                  
BILOXI         PTSUNNY   66  43  44 NW18G24   29.77S                  
PASCAGOULA     PTSUNNY   65  43  44 NW8G17    29.76F                  
GULFPORT       PTSUNNY   65  43  44 NW23G35   29.78S                  
$$

LAZ007>009-015>016-023>026-192200-
NORTHEAST LOUISIANA
  
CITY           SKY/WX    TMP DP  RH WIND       PRES   REMARKS
BASTROP        CLOUDY    60  40  47 NW7G22    29.87S                  
TALLULAH/VBURG PTSUNNY   57  47  69 N8G22     29.85F                  
VIDALIA        FAIR      63  50  63 W13       29.85F                  
$$